[[{"header":{"parameterUnit":"m.s-1","parameterCategory":1,"la1":30.2991,"la2":30.254,"lo1":-89.0895,"lo2":-89.0444,"dy":0.0017,"dx":0.0017,"nx":28,"ny":28,"refTime":"2023-08-29T03:00:00:Z","depth":0,"parameterNumber":2,"parameterNumberName":"U-component_of_WINDS"},"data":[0,0,0,0,0,0,0,0,0,0,0,0,0,0,0,0,0,0,0,0,0,0,0,0,0,0,0,0,0,0,0,0,0,0,0,0,0,0,0,0,0,0,0,0,0,0,0,0,0,0,0,0,0,0,0,0,0,0,-2.2255,-2.2256,0,-2.2306,-2.2307,-2.2307,-2.2246,-2.2244,-2.2242,-2.2239,-2.229,-2.2293,-2.2297,0,0,0,0,0,0,0,0,0,0,0,0,0,-2.2102,-2.2105,-2.2255,-2.2256,-2.2256,-2.2306,-2.2307,-2.2308,-2.2246,-2.2244,-2.2241,-2.2238,-2.2289,-2.2293,-2.2297,0,0,0,0,0,0,0,0,0,0,0,0,0,-2.2162,-2.2106,-2.2255,-2.2232,-2.223,-2.2306,-2.2307,-2.2308,-2.2247,-2.2244,-2.224,-2.2237,-2.2287,-2.2292,-2.2298,-2.2398,0,0,-2.2313,-2.2316,0,0,0,0,0,0,0,0,-2.2159,-2.2168,-2.2235,-2.2234,-2.2232,-2.2266,-2.2271,-2.2338,-2.2248,-2.2241,-2.2239,-2.2235,-2.2285,-2.229,-2.2307,-2.24,-2.2402,-2.2314,-2.2317,-2.2319,-2.2321,0,0,0,0,0,0,0,-2.2155,-2.2165,-2.2275,-2.2236,-2.2234,-2.2218,-2.2223,-2.2284,-2.2281,-2.2241,-2.2237,-2.2244,-2.2283,-2.2302,-2.2308,-2.2403,-2.2314,-2.2318,-2.2322,-2.2324,-2.2581,-2.2584,0,0,0,0,0,0,-2.2153,-2.2162,-2.2274,-2.2277,-2.2186,-2.2224,-2.2229,-2.2259,-2.228,-2.228,-2.2247,-2.2241,-2.2295,-2.2302,-2.2309,-2.2428,-2.2319,-2.2324,-2.2327,-2.2577,-2.2582,-2.2586,0,0,0,0,0,0,-2.215,-2.2164,-2.2272,-2.2218,-2.2231,-2.223,-2.2264,-2.2262,-2.228,-2.2285,-2.2283,-2.2267,-2.2292,-2.2302,-2.2376,-2.2429,-2.2326,-2.2331,-2.2573,-2.2578,-2.2584,-2.2667,0,0,0,0,0,0,-2.2146,-2.2163,-2.2202,-2.222,-2.2234,-2.2339,-2.2267,-2.2265,-2.229,-2.2282,-2.2303,-2.2303,-2.2291,-2.2369,-2.2382,-2.2434,-2.2335,-2.2568,-2.2575,-2.2582,-2.266,-2.2675,-2.2688,0,0,0,0,0,-2.2141,-2.2223,-2.2204,-2.2218,-2.2283,-2.2342,-2.235,-2.2335,-2.2294,-2.2333,-2.2335,-2.2302,-2.2421,-2.2377,-2.2391,-2.2446,-2.2565,-2.2573,-2.2581,-2.2653,-2.2672,-2.2688,0,0,0,0,0,0,-2.2211,-2.2225,-2.2204,-2.2295,-2.2318,-2.2332,-2.238,-2.2355,-2.2389,-2.2381,-2.236,-2.2365,-2.2444,-2.2452,-2.2403,-2.2544,-2.2486,-2.2498,-2.2536,-2.2554,-2.2568,-2.2565,-2.234,0,0,0,0,0,-2.2238,-2.2286,-2.2294,-2.2373,-2.2386,-2.2381,-2.2407,-2.2393,-2.2415,-2.2425,-2.2432,-2.2455,-2.2497,-2.2526,-2.2565,-2.266,-2.2663,-2.2705,-2.2719,-2.273,-2.2741,-2.2792,-2.281,-2.2613,-2.2613,-2.2613,0,0,-2.2292,-2.2305,-2.2337,-2.2388,-2.2404,-2.2454,-2.239,-2.2445,-2.2481,-2.2433,-2.2504,-2.251,-2.2534,-2.2619,-2.2657,-2.2628,-2.2796,-2.2741,-2.275,-2.2754,-2.2802,-2.2821,-2.2837,-2.2619,-2.2618,-2.2617,0,0,-2.2417,-2.2432,-2.2499,-2.2517,-2.2542,-2.2538,-2.2554,-2.2572,-2.2575,-2.2646,-2.261,-2.2652,-2.2726,-2.2744,-2.2763,-2.2894,-2.2865,-2.2907,-2.2981,-2.3031,-2.3046,-2.306,-2.3107,-2.3124,-2.2917,-2.2917,-2.2917,0,-2.2481,-2.2555,-2.2537,-2.2595,-2.2618,-2.2576,-2.2644,-2.2662,-2.2699,-2.2715,-2.2682,-2.2773,-2.2786,-2.2875,-2.2907,-2.2924,-2.2941,-2.2905,-2.3046,-2.3059,-2.3072,-2.3116,-2.3134,-2.2922,-2.2922,-2.2921,-2.2921,0,-2.2633,-2.2685,-2.2736,-2.2774,-2.2802,-2.2865,-2.2855,-2.2887,-2.287,-2.2869,-2.2941,-2.2955,-2.2997,-2.3016,-2.3,-2.3103,-2.3085,-2.3049,-2.2991,-2.3096,-2.3137,-2.3154,-2.293,-2.2928,-2.2926,-2.2925,0,0,-2.2805,-2.2831,-2.285,-2.2867,-2.2891,-2.293,-2.299,-2.3031,-2.3059,-2.3084,-2.3134,-2.3197,-2.3164,-2.3186,-2.3171,-2.3215,-2.3318,-2.3173,-2.3174,-2.32,-2.3432,-2.3459,-2.3479,-2.3298,-2.3301,-2.3303,-2.343,0,-2.2931,-2.3036,-2.3021,-2.3122,-2.317,-2.313,-2.3182,-2.3202,-2.3203,-2.3242,-2.3242,-2.3288,-2.3241,-2.3253,-2.3295,-2.3296,-2.3364,-2.3287,-2.3344,-2.3346,-2.334,-2.3501,-2.353,-2.3649,-2.3446,-2.3449,-2.3451,0,-2.3092,-2.3125,-2.3231,-2.3248,-2.3267,-2.3315,-2.335,-2.3389,-2.341,-2.3408,-2.3432,-2.3409,-2.3468,-2.3408,-2.3489,-2.3437,-2.3458,-2.3463,-2.3467,-2.3472,-2.3406,-2.3512,-2.3687,-2.3705,-2.3476,-2.3474,-2.3472,0,-2.3208,-2.3278,-2.3351,-2.3366,-2.3387,-2.3421,-2.3431,-2.345,-2.3475,-2.3506,-2.3522,-2.3559,-2.358,-2.3609,-2.3596,-2.3553,-2.368,-2.3618,-2.3679,-2.3679,-2.3708,-2.3707,-2.389,-2.3721,-2.3721,-2.372,-2.372,0,-2.335,-2.3417,-2.3403,-2.3448,-2.3521,-2.3502,-2.3575,-2.358,-2.3596,-2.3641,-2.3608,-2.365,-2.3631,-2.3671,-2.3661,-2.373,-2.3739,-2.3738,-2.3735,-2.3742,-2.3743,-2.3757,-2.3749,-2.3725,-2.3724,-2.3723,-2.3722,0,-2.3493,-2.3486,-2.3563,-2.3576,-2.3581,-2.3635,-2.3646,-2.3687,-2.3685,-2.3742,-2.3754,-2.375,-2.3796,-2.3786,-2.3836,-2.3829,-2.3916,-2.3902,-2.3909,-2.3906,-2.3967,-2.3962,-2.4168,-2.4194,-2.4007,-2.4009,-2.401,0,-2.3585,-2.3635,-2.3654,-2.3682,-2.3695,-2.374,-2.3766,-2.3749,-2.3777,-2.3805,-2.3843,-2.3886,-2.392,-2.3995,-2.3996,-2.4034,-2.4021,-2.409,-2.4027,-2.4032,-2.4023,-2.4021,-2.4026,-2.4104,-2.4106,-2.4107,-2.4109,0,-2.3749,-2.3743,-2.3782,-2.382,-2.3852,-2.3881,-2.3906,-2.3931,-2.3915,-2.3948,-2.3995,-2.4021,-2.4072,-2.4116,-2.4151,-2.416,-2.4132,-2.4129,-2.4145,-2.4153,-2.4155,-2.4155,-2.3945,-2.4124,-2.4123,-2.4122,-2.4121,-2.412,-2.387,-2.3913,-2.3933,-2.3977,-2.3995,-2.4019,-2.4059,-2.4061,-2.41,-2.4142,-2.4128,-2.4182,-2.4201,-2.4245,-2.4259,-2.43,-2.4273,-2.4297,-2.4303,-2.4309,-2.4317,-2.4148,-2.4306,-2.4305,-2.4305,-2.4304,-2.4304,0,-2.4033,-2.4044,-2.4085,-2.4122,-2.4157,-2.4127,-2.4153,-2.4184,-2.4232,-2.4252,-2.4286,-2.434,-2.4381,-2.4385,-2.4424,-2.4456,-2.4444,-2.4467,-2.4465,-2.4468,-2.4338,-2.432,-2.4476,-2.4476,-2.4476,-2.4476,-2.4476,-2.4476,-2.4123,-2.4194,-2.419,-2.4269,-2.4279,-2.4332,-2.435,-2.4372,-2.4388,-2.445,-2.4484,-2.4486,-2.45,-2.4539,-2.4576,-2.4576,-2.4592,-2.462,-2.4615,-2.4494,-2.4477,-2.4461,-2.4444,-2.4623,-2.4623,-2.4741,-2.4743,-2.4743]},{"header":{"parameterUnit":"m.s-1","parameterCategory":1,"la1":30.2991,"la2":30.254,"lo1":-89.0895,"lo2":-89.0444,"dy":0.0017,"dx":0.0017,"nx":28,"ny":28,"refTime":"2023-08-29T03:00:00:Z","depth":0,"parameterNumber":3,"parameterNumberName":"V-component_of_WINDS"},"data":[0,0,0,0,0,0,0,0,0,0,0,0,0,0,0,0,0,0,0,0,0,0,0,0,0,0,0,0,0,0,0,0,0,0,0,0,0,0,0,0,0,0,0,0,0,0,0,0,0,0,0,0,0,0,0,0,0,0,-4.2909,-4.291,0,-4.3024,-4.3025,-4.3026,-4.2991,-4.2988,-4.2986,-4.2983,-4.3094,-4.3099,-4.3104,0,0,0,0,0,0,0,0,0,0,0,0,0,-4.2652,-4.2657,-4.2909,-4.291,-4.2912,-4.3023,-4.3025,-4.3026,-4.2991,-4.2988,-4.2985,-4.2982,-4.3092,-4.3098,-4.3104,0,0,0,0,0,0,0,0,0,0,0,0,0,-4.2765,-4.2659,-4.2909,-4.2908,-4.2909,-4.3023,-4.3025,-4.3027,-4.2992,-4.2988,-4.2984,-4.2981,-4.309,-4.3098,-4.3105,-4.3225,0,0,-4.3129,-4.3132,0,0,0,0,0,0,0,0,-4.2758,-4.2774,-4.2906,-4.2908,-4.2909,-4.2989,-4.2975,-4.3093,-4.2993,-4.296,-4.2983,-4.2979,-4.3061,-4.3071,-4.31,-4.323,-4.3235,-4.313,-4.3134,-4.3138,-4.314,0,0,0,0,0,0,0,-4.2751,-4.2769,-4.2954,-4.2908,-4.291,-4.2899,-4.2911,-4.2997,-4.3029,-4.2962,-4.296,-4.2975,-4.3061,-4.3093,-4.3103,-4.3237,-4.3129,-4.3136,-4.3141,-4.3144,-4.347,-4.3474,0,0,0,0,0,0,-4.2743,-4.2763,-4.295,-4.2957,-4.2824,-4.2907,-4.292,-4.2967,-4.3028,-4.3034,-4.2978,-4.2973,-4.3082,-4.3094,-4.3107,-4.3251,-4.3138,-4.3145,-4.3149,-4.3466,-4.3471,-4.3475,0,0,0,0,0,0,-4.2737,-4.276,-4.2946,-4.286,-4.2882,-4.2915,-4.2968,-4.2971,-4.3003,-4.304,-4.3045,-4.3005,-4.3079,-4.3096,-4.3196,-4.3254,-4.3148,-4.3155,-4.3461,-4.3467,-4.3473,-4.3541,0,0,0,0,0,0,-4.273,-4.2758,-4.2806,-4.2861,-4.2887,-4.3036,-4.2972,-4.2976,-4.3017,-4.3012,-4.3066,-4.3072,-4.3078,-4.3185,-4.3204,-4.3263,-4.3161,-4.3456,-4.3464,-4.3471,-4.3534,-4.3549,-4.3561,0,0,0,0,0,-4.2721,-4.2819,-4.2809,-4.2831,-4.2948,-4.304,-4.3054,-4.3061,-4.3022,-4.3069,-4.3093,-4.307,-4.3245,-4.3196,-4.3217,-4.3279,-4.3452,-4.3462,-4.347,-4.3528,-4.3546,-4.3561,0,0,0,0,0,0,-4.2767,-4.2826,-4.2815,-4.2934,-4.2983,-4.3033,-4.3093,-4.308,-4.3138,-4.3131,-4.3134,-4.3147,-4.325,-4.3274,-4.3218,-4.3398,-4.3342,-4.3356,-4.3379,-4.3396,-4.341,-4.3402,-4.3168,0,0,0,0,0,-4.2792,-4.2864,-4.291,-4.3011,-4.3036,-4.3061,-4.31,-4.3102,-4.3151,-4.317,-4.3201,-4.3248,-4.3313,-4.3356,-4.3418,-4.3537,-4.3547,-4.359,-4.3604,-4.3615,-4.3626,-4.3691,-4.371,-4.3505,-4.3504,-4.3504,0,0,-4.2842,-4.2883,-4.2928,-4.3021,-4.3058,-4.3131,-4.3078,-4.3156,-4.3209,-4.3181,-4.3279,-4.3303,-4.3355,-4.3466,-4.3516,-4.3489,-4.3685,-4.3626,-4.3635,-4.3641,-4.3702,-4.3721,-4.3738,-4.3511,-4.351,-4.3509,0,0,-4.2971,-4.301,-4.3098,-4.3137,-4.3196,-4.3212,-4.3233,-4.3286,-4.3302,-4.34,-4.3381,-4.3442,-4.3555,-4.3593,-4.3627,-4.377,-4.3751,-4.379,-4.3862,-4.3925,-4.3941,-4.3955,-4.4006,-4.4024,-4.3801,-4.3802,-4.3802,0,-4.3026,-4.3137,-4.3144,-4.3226,-4.3266,-4.3247,-4.3335,-4.3371,-4.3446,-4.3473,-4.3443,-4.3584,-4.3617,-4.3736,-4.3772,-4.38,-4.3822,-4.3784,-4.3938,-4.3953,-4.3966,-4.4015,-4.4034,-4.3806,-4.3805,-4.3805,-4.3805,0,-4.3201,-4.3278,-4.3341,-4.3417,-4.3465,-4.3549,-4.3567,-4.3614,-4.3611,-4.3629,-4.3729,-4.3768,-4.3838,-4.3866,-4.3863,-4.3985,-4.3966,-4.3937,-4.3881,-4.399,-4.4035,-4.4054,-4.3812,-4.3811,-4.3809,-4.3808,0,0,-4.3362,-4.3442,-4.3465,-4.3499,-4.3562,-4.362,-4.3702,-4.3773,-4.3813,-4.3864,-4.3932,-4.4028,-4.4002,-4.404,-4.4041,-4.4096,-4.4206,-4.4059,-4.4061,-4.4085,-4.4342,-4.4364,-4.4386,-4.4194,-4.4198,-4.42,-4.4338,0,-4.3497,-4.3645,-4.3654,-4.3786,-4.3857,-4.3839,-4.391,-4.3955,-4.3974,-4.4035,-4.4054,-4.4123,-4.4083,-4.4106,-4.4159,-4.4182,-4.4258,-4.4172,-4.4256,-4.4259,-4.4244,-4.4409,-4.4433,-4.4561,-4.4356,-4.4359,-4.4361,0,-4.3674,-4.3734,-4.3874,-4.3928,-4.3957,-4.4022,-4.4087,-4.4146,-4.4195,-4.4205,-4.4249,-4.4242,-4.4323,-4.4265,-4.4377,-4.4318,-4.4353,-4.4369,-4.4374,-4.4382,-4.4317,-4.4422,-4.4602,-4.4621,-4.4389,-4.4387,-4.4385,0,-4.3777,-4.3893,-4.3992,-4.4022,-4.4086,-4.4132,-4.416,-4.4207,-4.4248,-4.4304,-4.4331,-4.4395,-4.443,-4.4479,-4.4488,-4.4445,-4.46,-4.4542,-4.4609,-4.4609,-4.4643,-4.464,-4.483,-4.4665,-4.4664,-4.4664,-4.4664,0,-4.3927,-4.4013,-4.404,-4.4101,-4.4197,-4.4205,-4.4299,-4.4324,-4.4366,-4.4429,-4.4416,-4.4476,-4.4485,-4.4546,-4.4553,-4.4644,-4.466,-4.4669,-4.467,-4.467,-4.4669,-4.4693,-4.4684,-4.4669,-4.4668,-4.4667,-4.4666,0,-4.4059,-4.408,-4.4187,-4.424,-4.4255,-4.4324,-4.4368,-4.4425,-4.4443,-4.4523,-4.4542,-4.457,-4.4641,-4.4655,-4.4738,-4.4743,-4.4852,-4.4844,-4.4836,-4.4835,-4.4901,-4.4895,-4.5113,-4.5142,-4.4957,-4.4959,-4.4961,0,-4.4153,-4.422,-4.428,-4.4324,-4.4355,-4.4424,-4.4468,-4.4478,-4.4523,-4.4585,-4.4634,-4.4704,-4.4761,-4.4875,-4.4901,-4.4964,-4.4957,-4.503,-4.4967,-4.4965,-4.4958,-4.4955,-4.4961,-4.5042,-4.5044,-4.5045,-4.5046,0,-4.4318,-4.4325,-4.439,-4.4458,-4.4511,-4.4564,-4.4615,-4.465,-4.4667,-4.4718,-4.4792,-4.4836,-4.4923,-4.4992,-4.5055,-4.5081,-4.5067,-4.5066,-4.5085,-4.5086,-4.5079,-4.5084,-4.4869,-4.5061,-4.506,-4.5059,-4.5058,-4.5057,-4.4434,-4.4492,-4.4545,-4.4616,-4.4656,-4.4704,-4.4761,-4.4787,-4.485,-4.4923,-4.4924,-4.5004,-4.5051,-4.5135,-4.5166,-4.5227,-4.5204,-4.5231,-4.5238,-4.5245,-4.5251,-4.507,-4.5238,-4.5238,-4.5238,-4.5237,-4.5237,0,-4.4598,-4.4631,-4.4697,-4.477,-4.4826,-4.481,-4.4865,-4.4912,-4.4984,-4.5031,-4.5088,-4.5172,-4.5239,-4.527,-4.5336,-4.5379,-4.5374,-4.5396,-4.5393,-4.5399,-4.5268,-4.5245,-4.5399,-4.5399,-4.5399,-4.5399,-4.5399,-4.5399,-4.469,-4.4788,-4.4802,-4.4919,-4.495,-4.5032,-4.5065,-4.5108,-4.5145,-4.5241,-4.5298,-4.5319,-4.5358,-4.5427,-4.5487,-4.5494,-4.5519,-4.5544,-4.5548,-4.5425,-4.5408,-4.5393,-4.5372,-4.555,-4.555,-4.5675,-4.5676,-4.5677]}]]